St. Paul Lake Elmo, MN

9:48 AM CDT on June 23, 2017 (GMT -0500)
St. Paul Lake Elmo

Weather History for K21D - December, 2013

Change the Weather History Date:

Sunday, December 8, 2013

  Actual Average (KSTP) Record (KSTP)
Temperature  
Mean Temperature 4 °F -  
Max Temperature 12 °F 32 °F 46 °F (1999)
Min Temperature -4 °F 18 °F -2 °F (2007)
Degree Days  
Heating Degree Days 61    
Moisture  
Dew Point 3 °F    
Average Humidity 83    
Maximum Humidity 92    
Minimum Humidity 72    
Precipitation  
Precipitation 0.00 in - - ()
Sea Level Pressure  
Sea Level Pressure 30.26 in    
Wind  
Wind Speed 3 mph (East)    
Max Wind Speed 9 mph    
Max Gust Speed -    
Visibility 4 miles    
Events Snow    
Averages and records for this station are not official NWS values.
T = Trace of Precipitation, MM = Missing Value Source: NWS Daily Summary

Daily Weather History Graph

Daily Weather History Graph

Search for Another Location

Airport or City:

Trip Planner

Search our weather history database for the weather conditions in past years. The results will help you decide how hot, cold, wet, or windy it might be!

Date:

Astronomy

Dec. 08, 2013 Rise Set
Actual Time 7:37 AM CST 4:29 PM CST
Civil Twilight 7:03 AM CST 5:03 PM CST
Nautical Twilight 6:26 AM CST 5:40 PM CST
Astronomical Twilight 5:50 AM CST 6:15 PM CST
Moon 11:45 AM CST (12/8) 11:33 PM CST (12/8)
Length of Visible Light 9h 59m
Length of Day
8h 52m
Waxing Crescent, 40% of the Moon is Illuminated
Dec 8
Waxing Crescent
Dec 9
First Quarter
Dec 17
Full
Dec 25
Last Quarter
Jan 1
New

Hourly Weather History & Observations

Time (CST) Temp. Windchill Dew Point Humidity Pressure Visibility Wind Dir Wind Speed Gust Speed Precip Events Conditions
12:12 AM -4.0 °F - -7.6 °F 85% 30.56 in 10.0 mi Calm Calm - N/A   Clear
12:31 AM -4.0 °F - -7.6 °F 85% 30.54 in 10.0 mi Calm Calm - N/A   Clear
12:52 AM -2.2 °F - -7.6 °F 78% 30.53 in 10.0 mi Calm Calm - N/A   Clear
1:12 AM -2.2 °F - -5.8 °F 85% 30.52 in 10.0 mi Calm Calm - N/A   Clear
1:31 AM -0.4 °F - -5.8 °F 78% 30.52 in 10.0 mi Calm Calm - N/A   Mostly Cloudy
1:52 AM -0.4 °F - -5.8 °F 78% 30.51 in 10.0 mi Calm Calm - N/A   Scattered Clouds
2:12 AM -0.4 °F - -5.8 °F 78% 30.50 in 10.0 mi Calm Calm - N/A   Mostly Cloudy
2:31 AM -0.4 °F - -5.8 °F 78% 30.50 in 10.0 mi Calm Calm - N/A   Overcast
2:52 AM -0.4 °F - -5.8 °F 78% 30.49 in 10.0 mi Calm Calm - N/A   Overcast
3:12 AM 1.4 °F - -5.8 °F 72% 30.48 in 10.0 mi Calm Calm - N/A   Overcast
3:31 AM 1.4 °F - -5.8 °F 72% 30.47 in 10.0 mi Calm Calm - N/A   Overcast
3:52 AM 1.4 °F -6.2 °F -4.0 °F 78% 30.45 in 10.0 mi ENE 3.5 mph - N/A   Overcast
4:12 AM 1.4 °F -8.3 °F -4.0 °F 78% 30.44 in 3.0 mi East 4.6 mph - N/A Snow Light Snow
4:31 AM 1.4 °F -8.3 °F -4.0 °F 78% 30.44 in 3.0 mi East 4.6 mph - N/A Snow Light Snow
4:52 AM 1.4 °F -9.9 °F -4.0 °F 78% 30.42 in 3.0 mi ENE 5.8 mph - N/A Snow Light Snow
5:12 AM 1.4 °F -8.3 °F -4.0 °F 78% 30.42 in 3.0 mi East 4.6 mph - N/A Snow Light Snow
5:31 AM 1.4 °F -8.3 °F -4.0 °F 78% 30.41 in 4.0 mi East 4.6 mph - N/A Snow Light Snow
5:52 AM 1.4 °F -8.3 °F -2.2 °F 85% 30.41 in 4.0 mi East 4.6 mph - N/A Snow Light Snow
6:12 AM 1.4 °F -8.3 °F -2.2 °F 85% 30.40 in 3.0 mi East 4.6 mph - N/A Snow Light Snow
6:31 AM 1.4 °F -8.3 °F -2.2 °F 85% 30.39 in 2.5 mi East 4.6 mph - N/A Snow Light Snow
6:52 AM 3.2 °F -6.2 °F -0.4 °F 85% 30.39 in 2.5 mi East 4.6 mph - N/A Snow Light Snow
7:12 AM 3.2 °F -7.8 °F -0.4 °F 85% 30.38 in 2.5 mi ENE 5.8 mph - N/A Snow Light Snow
7:31 AM 3.2 °F -7.8 °F -0.4 °F 85% 30.37 in 2.5 mi ENE 5.8 mph - N/A Snow Light Snow
7:52 AM 3.2 °F -7.8 °F -0.4 °F 85% 30.36 in 2.0 mi East 5.8 mph - N/A Snow Light Snow
8:11 AM 3.2 °F -7.8 °F -0.4 °F 85% 30.36 in 1.8 mi East 5.8 mph - N/A Snow Light Snow
8:31 AM 5.0 °F -5.6 °F -0.4 °F 78% 30.36 in 2.5 mi East 5.8 mph - N/A Snow Light Snow
8:52 AM 5.0 °F -6.9 °F 1.4 °F 85% 30.36 in 1.5 mi East 6.9 mph - N/A Snow Light Snow
9:11 AM 5.0 °F -8.1 °F 1.4 °F 85% 30.34 in 1.8 mi East 8.1 mph - N/A Snow Light Snow
9:31 AM 5.0 °F -6.9 °F 1.4 °F 85% 30.33 in 1.5 mi East 6.9 mph - N/A Snow Light Snow
9:52 AM 5.0 °F -8.1 °F 1.4 °F 85% 30.32 in 2.0 mi East 8.1 mph - N/A Snow Light Snow
10:11 AM 6.8 °F -6.9 °F 1.4 °F 79% 30.32 in 2.0 mi East 9.2 mph - N/A Snow Light Snow
10:31 AM 6.8 °F -4.8 °F 3.2 °F 85% 30.31 in 4.0 mi East 6.9 mph - N/A Snow Light Snow
10:52 AM 8.6 °F -2.6 °F 3.2 °F 79% 30.31 in 3.0 mi East 6.9 mph - N/A Snow Light Snow
11:11 AM 8.6 °F -2.6 °F 3.2 °F 79% 30.29 in 1.2 mi East 6.9 mph - N/A Snow Light Snow
11:31 AM 10.4 °F -1.5 °F 5.0 °F 79% 30.27 in 1.5 mi East 8.1 mph - N/A Snow Light Snow
11:52 AM 10.4 °F 0.8 °F 5.0 °F 79% 30.25 in 1.8 mi East 5.8 mph - N/A Snow Light Snow
12:11 PM 10.4 °F -0.4 °F 5.0 °F 79% 30.24 in 3.0 mi East 6.9 mph - N/A Snow Light Snow
12:31 PM 10.4 °F -1.5 °F 5.0 °F 79% 30.23 in 3.0 mi East 8.1 mph - N/A   Haze
12:52 PM 12.2 °F 0.7 °F 5.0 °F 73% 30.21 in 7.0 mi ESE 8.1 mph - N/A   Overcast
1:11 PM 12.2 °F 1.7 °F 5.0 °F 73% 30.19 in 3.0 mi East 6.9 mph - N/A Snow Light Snow
1:32 PM 12.2 °F 1.7 °F 5.0 °F 73% 30.18 in 2.0 mi ESE 6.9 mph - N/A Snow Light Snow
1:52 PM 12.2 °F 2.9 °F 6.8 °F 79% 30.17 in 3.0 mi ESE 5.8 mph - N/A Snow Light Snow
2:11 PM 12.2 °F 0.7 °F 6.8 °F 79% 30.16 in 4.0 mi ESE 8.1 mph - N/A Snow Light Snow
2:31 PM 12.2 °F 1.7 °F 6.8 °F 79% 30.16 in 2.0 mi ESE 6.9 mph - N/A Snow Light Snow
2:52 PM 12.2 °F 4.3 °F 6.8 °F 79% 30.15 in 5.0 mi East 4.6 mph - N/A Snow Light Snow
3:11 PM 12.2 °F 2.9 °F 6.8 °F 79% 30.14 in 5.0 mi East 5.8 mph - N/A Snow Light Snow
3:32 PM 12.2 °F 2.9 °F 6.8 °F 79% 30.14 in 3.0 mi East 5.8 mph - N/A Snow Light Snow
3:52 PM 12.2 °F 1.7 °F 8.6 °F 85% 30.13 in 2.0 mi ENE 6.9 mph - N/A Snow Light Snow
4:11 PM 12.2 °F 1.7 °F 8.6 °F 85% 30.12 in 1.8 mi ENE 6.9 mph - N/A Snow Light Snow
4:32 PM 10.4 °F 0.8 °F 6.8 °F 85% 30.12 in 2.0 mi East 5.8 mph - N/A Snow Light Snow
4:52 PM 10.4 °F 0.8 °F 8.6 °F 92% 30.12 in 2.5 mi East 5.8 mph - N/A Snow Light Snow
5:11 PM 10.4 °F 2.2 °F 8.6 °F 92% 30.11 in 4.0 mi East 4.6 mph - N/A Snow Light Snow
5:32 PM 10.4 °F 2.2 °F 8.6 °F 92% 30.11 in 7.0 mi ENE 4.6 mph - N/A Snow Light Snow
5:52 PM 10.4 °F 2.2 °F 8.6 °F 92% 30.11 in 1.8 mi East 4.6 mph - N/A Snow Light Snow
6:11 PM 10.4 °F 4.0 °F 8.6 °F 92% 30.10 in 1.8 mi East 3.5 mph - N/A Snow Light Snow
6:32 PM 12.2 °F 6.1 °F 8.6 °F 85% 30.10 in 3.0 mi East 3.5 mph - N/A Snow Light Snow
6:51 PM 12.2 °F 6.1 °F 8.6 °F 85% 30.08 in 2.5 mi East 3.5 mph - N/A Snow Light Snow
7:11 PM 12.2 °F 6.1 °F 8.6 °F 85% 30.08 in 3.0 mi ENE 3.5 mph - N/A Snow Light Snow
7:32 PM 12.2 °F 6.1 °F 8.6 °F 85% 30.08 in 3.0 mi ENE 3.5 mph - N/A Snow Light Snow
7:51 PM 12.2 °F 6.1 °F 8.6 °F 85% 30.07 in 3.0 mi ENE 3.5 mph - N/A Snow Light Snow
8:11 PM 12.2 °F - 8.6 °F 85% 30.07 in 3.0 mi Calm Calm - N/A Snow Light Snow
8:32 PM 10.4 °F - 8.6 °F 92% 30.07 in 2.5 mi Calm Calm - N/A Snow Light Snow
8:51 PM 10.4 °F - 8.6 °F 92% 30.06 in 1.5 mi Calm Calm - N/A Snow Light Snow
9:11 PM 10.4 °F - 8.6 °F 92% 30.06 in 1.8 mi Calm Calm - N/A Snow Light Snow
9:32 PM 10.4 °F - 8.6 °F 92% 30.05 in 2.0 mi Calm Calm - N/A Snow Light Snow
9:51 PM 12.2 °F - 8.6 °F 85% 30.04 in 1.5 mi Calm Calm - N/A Snow Light Snow
10:11 PM 10.4 °F - 8.6 °F 92% 30.04 in 2.0 mi Calm Calm - N/A Snow Light Snow
10:32 PM 10.4 °F - 8.6 °F 92% 30.04 in 2.0 mi Calm Calm - N/A Snow Light Snow
10:51 PM 10.4 °F - 8.6 °F 92% 30.03 in 1.8 mi Calm Calm - N/A Snow Light Snow
11:11 PM 10.4 °F - 8.6 °F 92% 30.03 in 1.5 mi Calm Calm - N/A Snow Light Snow
11:32 PM 10.4 °F - 8.6 °F 92% 30.03 in 1.0 mi Calm Calm - N/A Snow Snow
11:51 PM 10.4 °F - 8.6 °F 92% 30.02 in 1.0 mi Calm Calm - N/A Snow Snow